Tracking 19709 objects as of 20-Jun-2019
HD Live streaming from Space Station
objects crossing your sky now

CBERS 1 DEB

Track CBERS 1 DEB now!
10-day predictions


NORAD ID: 31870
Int'l Code: 1999-057PV
Perigee: 565.4 km
Apogee: 577.5 km
Inclination: 98.2 °
Period: 95.9 minutes
Semi major axis: 6942 km
RCS: 0.0167 m2 (small)
Launch date: October 14, 1999
Source: China/Brazil (CHBZ)
Launch site: Taiyaun Space Center, China (TSC)

Note: This is SATELLITE DEBRIS
aabbcc
Your satellite tracking list
Your tracking list is empty




NASA's NSSDC Master Catalog

Two Line Element Set (TLE):
1 31870U 99057PV  19170.42593727 +.00004270 +00000-0 +34086-3 0  9993
2 31870 098.2126 230.5498 0008773 069.5581 290.6582 15.00838886641739
Source of the keplerian elements: AFSPC